GW0143 Weather Reports


Display with metric or nautical units.
time (UTC)temp
F
wind
direction
speed
MPH
gust
MPH
rain 1hr
in
rain 24hr
in
rain mn
in
humidity
%
barometer
mb
20260506094622 28 207 5.0 5.0 0.00 0.03 0.00 92 1013.5
20260506093603 28 207 6.0 7.0 0.00 0.03 0.00 92 1013.5
20260506092602 28 204 5.0 6.0 0.00 0.03 0.00 92 1013.5
20260506091603 28 215 4.0 5.0 0.00 0.03 0.00 92 1013.4
20260506090603 28 198 3.0 3.0 0.00 0.03 0.00 92 1013.5
20260506085604 28 188 2.0 2.0 0.00 0.03 0.00 92 1013.5
20260506084604 28 187 1.0 1.0 0.00 0.03 0.00 92 1013.5
20260506083624 28 206 2.0 3.0 0.00 0.03 0.00 92 1013.5
20260506082604 29 211 2.0 3.0 0.00 0.03 0.00 92 1013.4
20260506081604 29 221 3.0 4.0 0.00 0.03 0.00 92 1013.3
20260506080604 30 218 3.0 4.0 0.00 0.03 0.00 92 1013.6
20260506073522 30 255 2.0 3.0 0.00 0.03 0.00 92 1013.7
20260506072542 30 284 2.0 4.0 0.00 0.03 0.00 92 1013.9
20260506071522 30 283 2.0 3.0 0.00 0.03 0.00 92 1013.8
20260506070523 30 298 2.0 3.0 0.00 0.03 0.00 92 1013.9
20260506061520 30 347 4.0 6.0 0.00 0.03 0.00 92 1013.8
20260506060520 30 346 5.0 8.0 0.00 0.03 0.00 92 1013.6
20260506050521 31 348 5.0 8.0 0.00 0.03 0.03 92 1013.4
20260506044545 31 353 3.0 5.0 0.00 0.03 0.03 92 1013.3
20260506043522 32 6 4.0 8.0 0.00 0.03 0.03 91 1013.3
20260506042522 32 227 4.0 7.0 0.00 0.03 0.03 91 1013.2
20260506041519 32 203 7.0 11.0 0.00 0.03 0.03 91 1012.8
20260506040523 32 214 7.0 10.0 0.00 0.03 0.03 92 1012.9
20260506035518 32 201 9.0 12.0 0.00 0.03 0.03 91 1012.7
20260506034517 33 191 10.0 13.0 0.00 0.03 0.03 91 1012.7
20260506033517 34 203 8.0 10.0 0.00 0.03 0.03 90 1012.8
20260506032601 34 193 9.0 13.0 0.00 0.03 0.03 89 1012.6
20260506031521 33 204 7.0 10.0 0.00 0.03 0.03 90 1012.7
20260506030537 33 191 10.0 14.0 0.00 0.03 0.03 90 1012.7
20260506025517 33 213 10.0 15.0 0.00 0.04 0.03 90 1011.9
20260506024518 33 210 10.0 14.0 0.00 0.04 0.03 90 1011.7
20260506023518 33 196 12.0 18.0 0.00 0.04 0.03 91 1011.4
20260506022518 33 189 12.0 18.0 0.00 0.04 0.03 91 1011.2
20260506021518 33 188 12.0 16.0 0.00 0.04 0.03 91 1011.5
20260506020519 33 183 13.0 16.0 0.00 0.04 0.03 91 1011.7
20260506015519 33 179 12.0 16.0 0.00 0.04 0.03 91 1011.9
20260506014519 33 185 11.0 16.0 0.00 0.04 0.03 90 1011.5
20260506013519 34 209 8.0 12.0 0.00 0.04 0.03 90 1011.6
20260506012519 34 206 9.0 14.0 0.00 0.04 0.03 90 1011.5
20260506011540 34 211 9.0 13.0 0.00 0.04 0.03 90 1011.1
20260506010520 34 206 11.0 15.0 0.00 0.04 0.03 91 1010.8
20260506005540 34 203 11.0 15.0 0.00 0.04 0.03 90 1010.9
20260506004517 34 191 8.0 11.0 0.00 0.04 0.03 90 1011.0
20260506003517 34 191 8.0 12.0 0.00 0.04 0.03 91 1011.1
20260506002520 34 179 7.0 10.0 0.00 0.04 0.03 91 1011.1
20260506001541 34 192 5.0 7.0 0.00 0.04 0.03 91 1011.3
20260506000530 34 232 2.0 3.0 0.00 0.04 0.03 90 1011.5
20260505235530 34 208 0.0 1.0 0.00 0.04 0.03 90 1011.4
20260505234530 34 13 0.0 1.0 0.02 0.04 0.03 90 1011.3
20260505233530 34 360 2.0 2.0 0.02 0.04 0.03 90 1011.4
20260505232531 34 352 2.0 3.0 0.02 0.04 0.03 91 1011.4
20260505231551 33 17 2.0 3.0 0.02 0.04 0.03 92 1011.3
20260505230522 32 358 4.0 5.0 0.02 0.04 0.03 92 1011.4
20260505225522 32 350 6.0 9.0 0.02 0.04 0.03 91 1011.3
20260505224543 32 337 5.0 7.0 0.01 0.02 0.02 91 1011.3
20260505223532 33 324 3.0 4.0 0.01 0.02 0.02 90 1011.0
20260505222523 34 355 4.0 7.0 0.01 0.02 0.02 90 1010.7
20260505221532 34 354 3.0 5.0 0.01 0.02 0.01 90 1010.9
20260505220517 35 344 5.0 10.0 0.01 0.01 0.01 89 1011.0
20260505215517 36 324 4.0 7.0 0.01 0.01 0.01 89 1011.1
20260505214518 36 314 5.0 7.0 0.00 0.01 0.01 88 1011.1
20260505213517 36 328 7.0 10.0 0.01 0.01 0.01 87 1011.0
20260505212541 37 328 5.0 10.0 0.00 0.01 0.00 86 1011.2
20260505211518 38 352 9.0 15.0 0.00 0.01 0.00 86 1011.2
20260505210518 38 347 8.0 15.0 0.00 0.01 0.00 85 1011.2
20260505205518 39 329 7.0 12.0 0.00 0.01 0.00 83 1011.3
20260505204518 41 346 10.0 18.0 0.00 0.01 0.00 81 1011.2
20260505203517 43 344 8.0 15.0 0.00 0.00 0.00 73 1011.1
20260505202519 48 243 10.0 15.0 0.00 0.00 0.00 55 1010.9
20260505201520 50 204 13.0 20.0 0.00 0.00 0.00 50 1010.4
20260505200517 50 195 18.0 27.0 0.00 0.00 0.00 49 1009.9
20260505195518 51 185 20.0 26.0 0.00 0.00 0.00 48 1009.8
20260505194517 51 188 21.0 30.0 0.00 0.00 0.00 48 1009.8
20260505193537 50 179 15.0 23.0 0.00 0.00 0.00 49 1010.2
20260505192518 48 179 15.0 24.0 0.00 0.00 0.00 52 1010.5
20260505191519 48 187 14.0 20.0 0.00 0.00 0.00 53 1010.7
20260505190518 49 193 13.0 22.0 0.00 0.00 0.00 52 1010.8
20260505185518 49 206 8.0 13.0 0.00 0.00 0.00 50 1010.9
20260505184518 48 211 8.0 16.0 0.00 0.00 0.00 50 1011.0
20260505183518 47 194 12.0 21.0 0.00 0.00 0.00 53 1011.1
20260505182518 47 185 10.0 17.0 0.00 0.00 0.00 53 1011.2
20260505181519 48 198 9.0 14.0 0.00 0.00 0.00 52 1011.3
20260505180518 49 182 7.0 13.0 0.00 0.00 0.00 50 1011.4
20260505175519 47 170 9.0 14.0 0.00 0.00 0.00 54 1011.5
20260505174519 48 179 7.0 17.0 0.00 0.00 0.00 53 1011.5
20260505173521 47 221 6.0 9.0 0.00 0.00 0.00 55 1011.9
20260505172517 45 219 4.0 8.0 0.00 0.00 0.00 59 1012.2
20260505171519 45 208 5.0 10.0 0.00 0.00 0.00 61 1012.3
20260505170520 45 206 7.0 11.0 0.00 0.00 0.00 62 1012.0
20260505165540 44 173 8.0 13.0 0.00 0.00 0.00 64 1012.0
20260505164517 45 192 7.0 13.0 0.00 0.00 0.00 64 1012.2
20260505163517 44 205 7.0 11.0 0.00 0.00 0.00 64 1012.3
20260505162517 43 199 10.0 15.0 0.00 0.00 0.00 68 1012.4
20260505161521 43 207 9.0 13.0 0.00 0.00 0.00 69 1012.6
20260505160518 43 217 8.0 12.0 0.00 0.00 0.00 70 1012.7
20260505152519 43 224 7.0 13.0 0.00 0.00 0.00 72 1012.7
20260505151559 42 215 9.0 14.0 0.00 0.00 0.00 73 1012.7
20260505150519 42 215 8.0 13.0 0.00 0.00 0.00 74 1012.8
20260505140520 41 212 5.0 9.0 0.00 0.00 0.00 79 1013.2